[[{"header":{"parameterUnit":"m.s-1","parameterCategory":1,"la1":30.2991,"la2":30.254,"lo1":-89.0895,"lo2":-89.0444,"dy":0.0017,"dx":0.0017,"nx":28,"ny":28,"refTime":"2024-06-13T21:00:00:Z","depth":0,"parameterNumber":2,"parameterNumberName":"U-component_of_WINDS"},"data":[0,0,0,0,0,0,0,0,0,0,0,0,0,0,0,0,0,0,0,0,0,0,0,0,0,0,0,0,0,0,0,0,0,0,0,0,0,0,0,0,0,0,0,0,0,0,0,0,0,0,0,0,0,0,0,0,0,0,-1.8433,-1.8432,0,-1.8348,-1.8347,-1.8346,-1.8299,-1.8299,-1.8299,-1.8299,-1.8213,-1.8211,-1.8209,0,0,0,0,0,0,0,0,0,0,0,0,0,-1.8557,-1.8555,-1.8433,-1.8432,-1.8431,-1.8348,-1.8347,-1.8346,-1.8299,-1.8299,-1.8299,-1.8299,-1.8214,-1.8211,-1.8209,0,0,0,0,0,0,0,0,0,0,0,0,0,-1.8491,-1.8554,-1.8433,-1.8398,-1.8394,-1.8348,-1.8347,-1.8345,-1.83,-1.8299,-1.8299,-1.8299,-1.8215,-1.8212,-1.8208,-1.8192,0,0,-1.8198,-1.8197,0,0,0,0,0,0,0,0,-1.8495,-1.8486,-1.8404,-1.84,-1.8396,-1.8334,-1.8359,-1.8294,-1.83,-1.8335,-1.8299,-1.8299,-1.8254,-1.8247,-1.8232,-1.8188,-1.8184,-1.8198,-1.8196,-1.8195,-1.8194,0,0,0,0,0,0,0,-1.8499,-1.849,-1.8399,-1.8403,-1.8398,-1.8387,-1.8377,-1.8347,-1.8297,-1.8332,-1.8329,-1.8319,-1.8251,-1.8235,-1.8229,-1.8183,-1.8198,-1.8195,-1.8193,-1.8192,-1.8123,-1.8123,0,0,0,0,0,0,-1.8509,-1.8494,-1.8402,-1.8397,-1.8446,-1.8385,-1.8374,-1.8354,-1.8297,-1.8288,-1.8319,-1.8317,-1.8241,-1.8233,-1.8226,-1.8204,-1.8195,-1.8192,-1.819,-1.8123,-1.8123,-1.8123,0,0,0,0,0,0,-1.8512,-1.8502,-1.8405,-1.8444,-1.8431,-1.8383,-1.8361,-1.8352,-1.8336,-1.8287,-1.8278,-1.8312,-1.824,-1.8231,-1.8201,-1.82,-1.819,-1.8187,-1.8123,-1.8123,-1.8123,-1.8159,0,0,0,0,0,0,-1.8516,-1.8503,-1.8495,-1.8444,-1.8429,-1.8381,-1.8361,-1.8351,-1.833,-1.8327,-1.8277,-1.8269,-1.8239,-1.8206,-1.8198,-1.8196,-1.8185,-1.8123,-1.8123,-1.8123,-1.8157,-1.816,-1.8163,0,0,0,0,0,-1.8521,-1.8509,-1.8495,-1.8485,-1.8419,-1.8381,-1.8372,-1.8338,-1.833,-1.8323,-1.8292,-1.8271,-1.8202,-1.8204,-1.8194,-1.819,-1.8123,-1.8123,-1.8123,-1.8156,-1.816,-1.8162,0,0,0,0,0,0,-1.8561,-1.8501,-1.8486,-1.8457,-1.8425,-1.8373,-1.8363,-1.8342,-1.8311,-1.831,-1.8269,-1.8258,-1.8232,-1.8208,-1.8211,-1.8172,-1.816,-1.8158,-1.8189,-1.8191,-1.8194,-1.82,-1.8182,0,0,0,0,0,-1.8567,-1.854,-1.849,-1.847,-1.8454,-1.8412,-1.8394,-1.837,-1.8335,-1.8321,-1.8287,-1.8255,-1.8226,-1.8207,-1.8178,-1.8154,-1.8143,-1.8147,-1.815,-1.8152,-1.8151,-1.8138,-1.814,-1.8124,-1.8124,-1.8124,0,0,-1.8578,-1.8542,-1.8528,-1.8477,-1.8449,-1.8423,-1.84,-1.8374,-1.8355,-1.8317,-1.8287,-1.8262,-1.8222,-1.8196,-1.8183,-1.8175,-1.8153,-1.8152,-1.8155,-1.8152,-1.8139,-1.814,-1.8141,-1.8124,-1.8124,-1.8124,0,0,-1.8585,-1.8555,-1.8535,-1.8508,-1.8466,-1.8438,-1.8433,-1.8385,-1.8367,-1.8336,-1.8308,-1.8285,-1.8236,-1.8209,-1.8189,-1.8189,-1.8169,-1.8181,-1.8194,-1.8181,-1.8183,-1.8184,-1.8184,-1.8185,-1.818,-1.818,-1.818,0,-1.8604,-1.8564,-1.8528,-1.8503,-1.8482,-1.8447,-1.8427,-1.8403,-1.8354,-1.834,-1.8333,-1.8271,-1.8242,-1.8209,-1.8209,-1.8194,-1.8188,-1.8186,-1.8185,-1.8186,-1.8186,-1.8186,-1.8187,-1.8182,-1.8181,-1.8181,-1.8181,0,-1.859,-1.8563,-1.8552,-1.8505,-1.8483,-1.8461,-1.8423,-1.8404,-1.8384,-1.8357,-1.8327,-1.8291,-1.8254,-1.8245,-1.8224,-1.821,-1.8207,-1.8193,-1.818,-1.819,-1.8189,-1.8189,-1.8184,-1.8183,-1.8183,-1.8183,0,0,-1.8619,-1.8554,-1.855,-1.8529,-1.8481,-1.846,-1.8437,-1.8401,-1.8387,-1.8355,-1.8335,-1.8295,-1.8282,-1.826,-1.8236,-1.8225,-1.8229,-1.8213,-1.8211,-1.8217,-1.8212,-1.8223,-1.8224,-1.8215,-1.8215,-1.8215,-1.8216,0,-1.8619,-1.8576,-1.8544,-1.8513,-1.8488,-1.8456,-1.8436,-1.8405,-1.838,-1.8356,-1.8328,-1.8301,-1.8286,-1.8272,-1.826,-1.8231,-1.8227,-1.823,-1.8197,-1.8197,-1.8208,-1.8223,-1.8234,-1.8237,-1.8215,-1.8215,-1.8215,0,-1.8614,-1.8583,-1.855,-1.8506,-1.8494,-1.8477,-1.8442,-1.842,-1.8384,-1.8367,-1.8343,-1.8319,-1.8294,-1.8284,-1.8251,-1.8254,-1.8239,-1.8223,-1.8222,-1.8217,-1.8207,-1.822,-1.8237,-1.8238,-1.8214,-1.8215,-1.8215,0,-1.8639,-1.8589,-1.8563,-1.8546,-1.8494,-1.8483,-1.8461,-1.8426,-1.8407,-1.8377,-1.8364,-1.8332,-1.8315,-1.8291,-1.8259,-1.8254,-1.8229,-1.8216,-1.8215,-1.8216,-1.8211,-1.8212,-1.8226,-1.8201,-1.8201,-1.8201,-1.8201,0,-1.8643,-1.8624,-1.8574,-1.8558,-1.8537,-1.8501,-1.8481,-1.8456,-1.8425,-1.8405,-1.8375,-1.8356,-1.8315,-1.8292,-1.8267,-1.8244,-1.8237,-1.8223,-1.8216,-1.8225,-1.8227,-1.8215,-1.8214,-1.8201,-1.8201,-1.8201,-1.8201,0,-1.8666,-1.8632,-1.8602,-1.8556,-1.8544,-1.853,-1.8491,-1.8475,-1.8449,-1.8424,-1.8416,-1.8375,-1.8346,-1.8313,-1.8273,-1.8256,-1.8236,-1.8226,-1.8248,-1.8244,-1.8245,-1.8246,-1.8252,-1.8252,-1.8227,-1.8227,-1.8228,0,-1.8671,-1.8656,-1.8608,-1.8593,-1.8571,-1.8546,-1.8527,-1.8491,-1.8473,-1.8433,-1.8422,-1.8391,-1.8365,-1.8321,-1.8289,-1.8259,-1.8248,-1.8253,-1.8244,-1.8254,-1.8249,-1.8251,-1.8249,-1.8255,-1.8256,-1.8256,-1.8256,0,-1.8683,-1.8667,-1.864,-1.8608,-1.8586,-1.8559,-1.8531,-1.852,-1.8479,-1.8459,-1.843,-1.841,-1.837,-1.834,-1.8307,-1.8285,-1.8264,-1.826,-1.8258,-1.8267,-1.828,-1.8274,-1.8254,-1.8259,-1.8259,-1.8259,-1.8259,-1.8259,-1.8697,-1.8683,-1.8648,-1.862,-1.8595,-1.8569,-1.8553,-1.8525,-1.85,-1.8464,-1.8445,-1.8417,-1.8384,-1.8336,-1.8316,-1.8294,-1.8286,-1.8284,-1.8283,-1.8283,-1.8286,-1.8284,-1.8287,-1.8287,-1.8287,-1.8287,-1.8287,0,-1.8708,-1.8685,-1.8659,-1.8621,-1.8599,-1.8581,-1.855,-1.8533,-1.8508,-1.8479,-1.8454,-1.8421,-1.8393,-1.8359,-1.8328,-1.8317,-1.8307,-1.8311,-1.8311,-1.8307,-1.8294,-1.8299,-1.832,-1.832,-1.832,-1.832,-1.832,-1.832,-1.8712,-1.8687,-1.8667,-1.8631,-1.8607,-1.8578,-1.8562,-1.8539,-1.8516,-1.8481,-1.8457,-1.8435,-1.8404,-1.8372,-1.8346,-1.8337,-1.8327,-1.8334,-1.8322,-1.831,-1.8308,-1.8305,-1.8309,-1.8332,-1.8332,-1.8336,-1.8337,-1.8337]},{"header":{"parameterUnit":"m.s-1","parameterCategory":1,"la1":30.2991,"la2":30.254,"lo1":-89.0895,"lo2":-89.0444,"dy":0.0017,"dx":0.0017,"nx":28,"ny":28,"refTime":"2024-06-13T21:00:00:Z","depth":0,"parameterNumber":3,"parameterNumberName":"V-component_of_WINDS"},"data":[0,0,0,0,0,0,0,0,0,0,0,0,0,0,0,0,0,0,0,0,0,0,0,0,0,0,0,0,0,0,0,0,0,0,0,0,0,0,0,0,0,0,0,0,0,0,0,0,0,0,0,0,0,0,0,0,0,0,-0.2646,-0.2645,0,-0.2526,-0.2524,-0.2523,-0.245,-0.245,-0.2449,-0.2449,-0.2323,-0.232,-0.2317,0,0,0,0,0,0,0,0,0,0,0,0,0,-0.2813,-0.281,-0.2646,-0.2645,-0.2643,-0.2526,-0.2524,-0.2522,-0.245,-0.245,-0.2449,-0.2449,-0.2324,-0.2321,-0.2317,0,0,0,0,0,0,0,0,0,0,0,0,0,-0.2721,-0.2809,-0.2646,-0.2593,-0.2587,-0.2526,-0.2524,-0.2522,-0.245,-0.245,-0.2449,-0.2449,-0.2325,-0.2321,-0.2317,-0.2299,0,0,-0.2303,-0.2301,0,0,0,0,0,0,0,0,-0.2726,-0.2715,-0.2602,-0.2597,-0.259,-0.2502,-0.2537,-0.2447,-0.245,-0.2502,-0.2449,-0.2448,-0.2383,-0.2374,-0.2352,-0.2293,-0.2287,-0.2302,-0.2299,-0.2298,-0.2296,0,0,0,0,0,0,0,-0.2733,-0.272,-0.2598,-0.2601,-0.2593,-0.2575,-0.2561,-0.2519,-0.2447,-0.2498,-0.2492,-0.2479,-0.238,-0.2357,-0.2349,-0.2285,-0.2302,-0.2298,-0.2295,-0.2294,-0.2207,-0.2208,0,0,0,0,0,0,-0.2748,-0.2726,-0.2602,-0.2595,-0.2658,-0.2572,-0.2557,-0.2531,-0.2447,-0.2434,-0.2479,-0.2476,-0.2365,-0.2354,-0.2344,-0.2319,-0.2298,-0.2293,-0.2291,-0.2207,-0.2207,-0.2208,0,0,0,0,0,0,-0.2752,-0.2738,-0.2607,-0.2659,-0.2641,-0.257,-0.2541,-0.2529,-0.2506,-0.2433,-0.242,-0.247,-0.2364,-0.235,-0.2311,-0.2314,-0.2291,-0.2287,-0.2206,-0.2207,-0.2208,-0.2269,0,0,0,0,0,0,-0.2757,-0.2739,-0.2732,-0.2659,-0.2638,-0.2577,-0.2541,-0.2527,-0.2499,-0.2493,-0.2421,-0.2408,-0.2363,-0.2318,-0.2307,-0.2307,-0.2284,-0.2206,-0.2207,-0.2208,-0.2266,-0.2271,-0.2276,0,0,0,0,0,-0.2763,-0.2753,-0.2732,-0.2718,-0.2628,-0.2577,-0.2565,-0.2513,-0.2499,-0.2491,-0.2445,-0.241,-0.2315,-0.2315,-0.2301,-0.23,-0.2205,-0.2207,-0.2207,-0.2264,-0.227,-0.2276,0,0,0,0,0,0,-0.2827,-0.2742,-0.2718,-0.2684,-0.2639,-0.2565,-0.2553,-0.2521,-0.2478,-0.2474,-0.2411,-0.2396,-0.2363,-0.2327,-0.2328,-0.228,-0.2257,-0.2255,-0.2304,-0.231,-0.2315,-0.2324,-0.228,0,0,0,0,0,-0.2837,-0.2804,-0.2731,-0.2708,-0.2687,-0.2624,-0.26,-0.2565,-0.2514,-0.2494,-0.2445,-0.2397,-0.2356,-0.2331,-0.2289,-0.226,-0.2245,-0.2253,-0.2258,-0.2262,-0.2262,-0.2246,-0.225,-0.2211,-0.2211,-0.2211,0,0,-0.2857,-0.2807,-0.279,-0.272,-0.268,-0.2647,-0.2608,-0.2574,-0.2549,-0.2489,-0.2449,-0.2412,-0.2354,-0.2321,-0.2303,-0.229,-0.2269,-0.2264,-0.2268,-0.2265,-0.2248,-0.2251,-0.2255,-0.2212,-0.2212,-0.2212,0,0,-0.2878,-0.2836,-0.2814,-0.2775,-0.2717,-0.2675,-0.267,-0.2601,-0.2575,-0.2534,-0.2489,-0.2458,-0.2389,-0.235,-0.2322,-0.233,-0.2298,-0.2318,-0.2344,-0.233,-0.2333,-0.2335,-0.234,-0.2342,-0.2318,-0.2318,-0.2318,0,-0.2911,-0.286,-0.2806,-0.2775,-0.2747,-0.2692,-0.2669,-0.2634,-0.2564,-0.2546,-0.2532,-0.2445,-0.2402,-0.236,-0.2363,-0.2341,-0.2334,-0.2327,-0.2337,-0.2338,-0.234,-0.2344,-0.2346,-0.2321,-0.2321,-0.2321,-0.232,0,-0.2904,-0.2869,-0.2858,-0.2794,-0.2764,-0.2737,-0.2679,-0.2655,-0.2623,-0.2583,-0.2544,-0.2491,-0.2438,-0.2425,-0.2392,-0.2379,-0.2373,-0.2349,-0.2324,-0.2348,-0.2351,-0.2351,-0.2326,-0.2324,-0.2324,-0.2323,0,0,-0.296,-0.2869,-0.2866,-0.2837,-0.2769,-0.2741,-0.2712,-0.2663,-0.2644,-0.2598,-0.2573,-0.2517,-0.2495,-0.2462,-0.2424,-0.2412,-0.2425,-0.2389,-0.2386,-0.2399,-0.2409,-0.2429,-0.2432,-0.2402,-0.2402,-0.2402,-0.2414,0,-0.2972,-0.2919,-0.2871,-0.2835,-0.2804,-0.2752,-0.2727,-0.2683,-0.2646,-0.2613,-0.2571,-0.2533,-0.2506,-0.2486,-0.2471,-0.2426,-0.2426,-0.2424,-0.2379,-0.2378,-0.2397,-0.2433,-0.2453,-0.2467,-0.2415,-0.2415,-0.2415,0,-0.2979,-0.2937,-0.29,-0.2837,-0.2822,-0.2801,-0.2753,-0.2722,-0.2671,-0.2645,-0.261,-0.2571,-0.2539,-0.2518,-0.2473,-0.2473,-0.2451,-0.2427,-0.2426,-0.2421,-0.2399,-0.243,-0.247,-0.2474,-0.2416,-0.2416,-0.2416,0,-0.3026,-0.2961,-0.293,-0.2907,-0.2833,-0.282,-0.2788,-0.2736,-0.2711,-0.2668,-0.2651,-0.2605,-0.258,-0.2545,-0.2495,-0.2484,-0.2456,-0.243,-0.2434,-0.2436,-0.2431,-0.2433,-0.2471,-0.2415,-0.2415,-0.2415,-0.2415,0,-0.3045,-0.3025,-0.2951,-0.2933,-0.2908,-0.2853,-0.283,-0.2794,-0.2749,-0.2723,-0.2674,-0.2651,-0.2585,-0.2553,-0.2514,-0.2484,-0.2472,-0.2451,-0.2441,-0.2456,-0.2459,-0.2442,-0.2441,-0.2415,-0.2415,-0.2415,-0.2415,0,-0.3095,-0.3044,-0.3008,-0.2942,-0.2925,-0.291,-0.2853,-0.2833,-0.2794,-0.2761,-0.275,-0.2688,-0.2649,-0.2595,-0.2538,-0.2511,-0.2488,-0.2471,-0.2506,-0.25,-0.2508,-0.2509,-0.2537,-0.2539,-0.2482,-0.2482,-0.2483,0,-0.3111,-0.3094,-0.3027,-0.3007,-0.2977,-0.2945,-0.2919,-0.2864,-0.2839,-0.2781,-0.2769,-0.2726,-0.2689,-0.2628,-0.2578,-0.2534,-0.2517,-0.253,-0.251,-0.2527,-0.252,-0.2522,-0.2521,-0.2536,-0.2537,-0.2537,-0.2538,0,-0.3146,-0.3122,-0.3087,-0.3045,-0.3016,-0.2979,-0.2939,-0.2925,-0.2862,-0.2836,-0.2797,-0.2768,-0.2712,-0.267,-0.2621,-0.2587,-0.2553,-0.2545,-0.2544,-0.256,-0.2582,-0.2572,-0.2521,-0.2544,-0.2544,-0.2543,-0.2543,-0.2543,-0.318,-0.3164,-0.3115,-0.3078,-0.3044,-0.3009,-0.2988,-0.2947,-0.2913,-0.2864,-0.2833,-0.2796,-0.2746,-0.2677,-0.2646,-0.2615,-0.2601,-0.2599,-0.2599,-0.26,-0.2606,-0.2586,-0.2605,-0.2605,-0.2605,-0.2605,-0.2604,0,-0.3214,-0.3181,-0.3148,-0.3096,-0.3068,-0.3038,-0.2994,-0.2972,-0.294,-0.2898,-0.2863,-0.2819,-0.2779,-0.2726,-0.2682,-0.2668,-0.2652,-0.2659,-0.266,-0.2654,-0.262,-0.2626,-0.2674,-0.2674,-0.2674,-0.2674,-0.2674,-0.2674,-0.3229,-0.3201,-0.3172,-0.3127,-0.3093,-0.3057,-0.3035,-0.3003,-0.2969,-0.2922,-0.289,-0.2856,-0.281,-0.2763,-0.2726,-0.2711,-0.2698,-0.2711,-0.2692,-0.2662,-0.2656,-0.265,-0.2656,-0.2708,-0.2708,-0.2729,-0.2729,-0.2729]}]]